Silver Bay, MN

10:02 PM CDT on August 21, 2017 (GMT -0500)
Silver Bay Municipal

Weather History for KBFW - June, 2013

Change the Weather History Date:

Wednesday, June 26, 2013

  Actual Average Record
Temperature  
Mean Temperature 63 °F -  
Max Temperature 71 °F 70 °F 86 °F (1999)
Min Temperature 55 °F 46 °F 35 °F (2014)
Degree Days  
Heating Degree Days 2    
Growing Degree Days 13 (Base 50)    
Moisture  
Dew Point 56 °F    
Average Humidity 85    
Maximum Humidity 94    
Minimum Humidity 68    
Precipitation  
Precipitation 0.16 in - - ()
Sea Level Pressure  
Sea Level Pressure 29.72 in    
Wind  
Wind Speed 0 mph (ENE)    
Max Wind Speed 9 mph    
Max Gust Speed -    
Visibility 8 miles    
Events Fog , Rain , Thunderstorm    
Averages and records for this station are not official NWS values.
T = Trace of Precipitation, MM = Missing Value Source: NWS Daily Summary

Daily Weather History Graph

Daily Weather History Graph

Search for Another Location

Airport or City:

Trip Planner

Search our weather history database for the weather conditions in past years. The results will help you decide how hot, cold, wet, or windy it might be!

Date:

Astronomy

Jun. 26, 2013 Rise Set
Actual Time 5:11 AM CDT 9:05 PM CDT
Civil Twilight 4:31 AM CDT 9:46 PM CDT
Nautical Twilight 3:35 AM CDT 10:41 PM CDT
Astronomical Twilight 2:11 AM CDT 12:05 AM CDT
Moon 11:09 PM CDT (6/26) 9:19 AM CDT (6/26)
Length of Visible Light 17h 15m
Length of Day
15h 54m
Waning Gibbous, 85% of the Moon is Illuminated
Jun 26
Waning Gibbous
Jun 29
Last Quarter
Jul 8
New
Jul 15
First Quarter
Jul 22
Full

Hourly Weather History & Observations

Time (CDT) Temp. Dew Point Humidity Pressure Visibility Wind Dir Wind Speed Gust Speed Precip Events Conditions
12:13 AM 59.0 °F 53.6 °F 82% 29.76 in 10.0 mi Calm Calm - N/A   Clear
12:33 AM 57.2 °F 53.6 °F 88% 29.75 in 10.0 mi Calm Calm - N/A   Clear
12:53 AM 57.2 °F 53.6 °F 88% 29.74 in 10.0 mi Calm Calm - N/A   Clear
1:13 AM 57.2 °F 53.6 °F 88% 29.74 in 10.0 mi Calm Calm - N/A   Clear
1:33 AM 55.4 °F 53.6 °F 94% 29.73 in 10.0 mi Calm Calm - N/A   Clear
1:53 AM 57.2 °F 53.6 °F 88% 29.73 in 10.0 mi Calm Calm - N/A   Clear
2:13 AM 55.4 °F 53.6 °F 94% 29.72 in 10.0 mi Calm Calm - N/A   Clear
2:33 AM 55.4 °F 51.8 °F 88% 29.72 in 10.0 mi Calm Calm - N/A   Clear
2:53 AM 55.4 °F 53.6 °F 94% 29.71 in 10.0 mi Calm Calm - N/A   Clear
3:13 AM 55.4 °F 51.8 °F 88% 29.71 in 10.0 mi Calm Calm - N/A   Clear
3:33 AM 55.4 °F 51.8 °F 88% 29.71 in 10.0 mi Calm Calm - N/A   Clear
3:53 AM 55.4 °F 51.8 °F 88% 29.72 in 10.0 mi Calm Calm - N/A   Clear
4:13 AM 55.4 °F 51.8 °F 88% 29.73 in 10.0 mi Calm Calm - N/A   Clear
4:33 AM 55.4 °F 51.8 °F 88% 29.73 in 10.0 mi Calm Calm - N/A   Clear
4:53 AM 55.4 °F 51.8 °F 88% 29.73 in 10.0 mi Calm Calm - N/A   Clear
5:13 AM 57.2 °F 53.6 °F 88% 29.71 in 10.0 mi Calm Calm - N/A   Clear
5:33 AM 57.2 °F 53.6 °F 88% 29.71 in 10.0 mi Calm Calm - N/A   Clear
5:53 AM 57.2 °F 53.6 °F 88% 29.71 in 10.0 mi Calm Calm - N/A   Clear
6:13 AM 60.8 °F 55.4 °F 82% 29.72 in 10.0 mi Calm Calm - N/A   Clear
6:33 AM 60.8 °F 55.4 °F 82% 29.72 in 10.0 mi Calm Calm - N/A   Clear
6:53 AM 62.6 °F 57.2 °F 82% 29.71 in 10.0 mi Calm Calm - N/A   Clear
7:13 AM 62.6 °F 55.4 °F 77% 29.71 in 10.0 mi Calm Calm - N/A   Scattered Clouds
7:33 AM 64.4 °F 57.2 °F 77% 29.70 in 4.0 mi Calm Calm - 0.02 in Rain Heavy Rain
7:54 AM 64.4 °F 57.2 °F 77% 29.71 in 10.0 mi Calm Calm - N/A   Clear
8:13 AM 64.4 °F 57.2 °F 77% 29.70 in 10.0 mi Calm Calm - N/A   Mostly Cloudy
8:33 AM 64.4 °F 55.4 °F 73% 29.70 in 10.0 mi Calm Calm - N/A   Mostly Cloudy
8:53 AM 64.4 °F 55.4 °F 73% 29.70 in 10.0 mi Calm Calm - N/A   Scattered Clouds
9:13 AM 62.6 °F 55.4 °F 77% 29.70 in 10.0 mi ENE 3.5 mph - N/A   Mostly Cloudy
9:33 AM 62.6 °F 55.4 °F 77% 29.70 in 10.0 mi ENE 3.5 mph - N/A   Overcast
9:53 AM 62.6 °F 53.6 °F 72% 29.70 in 10.0 mi Calm Calm - N/A   Mostly Cloudy
10:13 AM 60.8 °F 55.4 °F 82% 29.70 in 10.0 mi East 3.5 mph - N/A   Overcast
10:33 AM 59.0 °F 53.6 °F 82% 29.69 in 10.0 mi East 9.2 mph - N/A   Overcast
10:53 AM 59.0 °F 53.6 °F 82% 29.72 in 10.0 mi Calm Calm - N/A   Overcast
11:13 AM 60.8 °F 53.6 °F 77% 29.72 in 10.0 mi Calm Calm - N/A   Overcast
11:33 AM 60.8 °F 55.4 °F 82% 29.71 in 10.0 mi Calm Calm - N/A   Overcast
11:53 AM 60.8 °F 55.4 °F 82% 29.71 in 7.0 mi NE 5.8 mph - N/A   Overcast
12:13 PM 62.6 °F 55.4 °F 77% 29.70 in 7.0 mi Calm Calm - N/A   Overcast
12:33 PM 62.6 °F 57.2 °F 82% 29.69 in 7.0 mi NE 3.5 mph - N/A   Overcast
12:53 PM 64.4 °F 57.2 °F 77% 29.69 in 7.0 mi Calm Calm - N/A   Mostly Cloudy
1:13 PM 64.4 °F 57.2 °F 77% 29.71 in 7.0 mi North 3.5 mph - N/A   Mostly Cloudy
1:33 PM 64.4 °F 60.8 °F 88% 29.70 in 2.5 mi Calm Calm - 0.14 in Rain , Thunderstorm Heavy Thunderstorms and Rain
1:53 PM 64.4 °F 60.8 °F 88% 29.70 in 7.0 mi Calm Calm - N/A Rain Light Rain
2:13 PM 64.4 °F 60.8 °F 88% 29.72 in 5.0 mi Calm Calm - N/A   Scattered Clouds
2:33 PM 64.4 °F 60.8 °F 88% 29.73 in 4.0 mi Calm Calm - N/A   Mostly Cloudy
2:55 PM 64.4 °F 60.8 °F 88% 29.73 in 4.0 mi Calm Calm - N/A   Mostly Cloudy
3:13 PM 64.4 °F 60.8 °F 88% 29.73 in 5.0 mi Calm Calm - N/A   Scattered Clouds
3:34 PM 64.4 °F 60.8 °F 88% 29.72 in 5.0 mi Calm Calm - N/A   Mostly Cloudy
3:53 PM 68.0 °F 62.6 °F 83% 29.73 in 7.0 mi Calm Calm - N/A   Mostly Cloudy
4:13 PM 68.0 °F 62.6 °F 83% 29.72 in 10.0 mi Calm Calm - N/A   Scattered Clouds
4:33 PM 66.2 °F 62.6 °F 88% 29.71 in 10.0 mi Calm Calm - N/A   Scattered Clouds
4:53 PM 68.0 °F 62.6 °F 83% 29.71 in 10.0 mi Calm Calm - N/A   Scattered Clouds
5:13 PM 69.8 °F 62.6 °F 78% 29.71 in 10.0 mi Calm Calm - N/A   Clear
5:33 PM 71.6 °F 64.4 °F 78% 29.71 in 10.0 mi Calm Calm - N/A   Clear
5:53 PM 71.6 °F 64.4 °F 78% 29.70 in 10.0 mi Calm Calm - N/A   Clear
6:13 PM 71.6 °F 62.6 °F 73% 29.70 in 10.0 mi Calm Calm - N/A   Clear
6:33 PM 69.8 °F 62.6 °F 78% 29.70 in 10.0 mi Calm Calm - N/A   Clear
6:53 PM 69.8 °F 59.0 °F 68% 29.71 in 10.0 mi SSE 3.5 mph - N/A   Clear
7:13 PM 62.6 °F 55.4 °F 77% 29.71 in 10.0 mi Calm Calm - N/A   Clear
7:33 PM 57.2 °F 53.6 °F 88% 29.72 in 0.8 mi Calm Calm - N/A   Mostly Cloudy
7:53 PM 57.2 °F 53.6 °F 88% 29.72 in 7.0 mi Calm Calm - N/A   Scattered Clouds
8:13 PM 57.2 °F 53.6 °F 88% 29.71 in 10.0 mi Calm Calm - N/A   Clear
8:33 PM 57.2 °F 53.6 °F 88% 29.72 in 10.0 mi Calm Calm - N/A   Clear
8:53 PM 57.2 °F 55.4 °F 94% 29.74 in 10.0 mi Calm Calm - N/A   Scattered Clouds
9:13 PM 57.2 °F 55.4 °F 94% 29.74 in 7.0 mi Calm Calm - N/A   Mostly Cloudy
9:33 PM 57.2 °F 55.4 °F 94% 29.74 in 7.0 mi Calm Calm - N/A   Overcast
9:53 PM 57.2 °F 55.4 °F 94% 29.75 in 4.0 mi Calm Calm - N/A   Overcast
10:13 PM 57.2 °F 55.4 °F 94% 29.76 in 5.0 mi Calm Calm - N/A   Mostly Cloudy
10:33 PM 57.2 °F 55.4 °F 94% 29.77 in 1.8 mi Calm Calm - N/A   Overcast
10:53 PM 57.2 °F 55.4 °F 94% 29.76 in 4.0 mi Calm Calm - N/A   Scattered Clouds
11:13 PM 57.2 °F 53.6 °F 88% 29.77 in 1.0 mi Calm Calm - N/A Thunderstorm Mostly Cloudy
11:33 PM 57.2 °F 53.6 °F 88% 29.77 in 2.5 mi Calm Calm - N/A   Mostly Cloudy
11:53 PM 57.2 °F 55.4 °F 94% 29.76 in 0.5 mi Calm Calm - N/A Fog Fog